CW9454 Weather Reports


Display with metric or nautical units.
time (UTC)temp
F
wind
direction
speed
MPH
gust
MPH
rain 1hr
in
rain 24hr
in
rain mn
in
humidity
%
barometer
mb
20260504223012 73 124 2.0 8.0 0.00 0.00 0.00 44 1010.0
20260504222026 73 145 1.0 7.0 0.00 0.00 0.00 44 1010.0
20260504221019 74 107 0.0 7.0 0.00 0.00 0.00 43 1010.0
20260504220047 74 103 2.0 8.0 0.00 0.00 0.00 43 1009.9
20260504215049 74 157 2.0 7.0 0.00 0.00 0.00 44 1010.0
20260504214040 74 88 1.0 5.0 0.00 0.00 0.00 43 1009.9
20260504213030 74 101 1.0 6.0 0.00 0.00 0.00 42 1010.1
20260504212013 74 114 3.0 11.0 0.00 0.00 0.00 42 1010.2
20260504211027 74 112 1.0 8.0 0.00 0.00 0.00 41 1010.1
20260504210014 75 135 2.0 7.0 0.00 0.00 0.00 41 1009.9
20260504205029 74 161 0.0 7.0 0.00 0.00 0.00 42 1010.2
20260504204022 75 114 2.0 7.0 0.00 0.00 0.00 40 1010.2
20260504203016 75 150 1.0 7.0 0.00 0.00 0.00 42 1010.2
20260504202031 76 152 1.0 5.0 0.00 0.00 0.00 39 1010.3
20260504201025 76 102 1.0 7.0 0.00 0.00 0.00 39 1010.3
20260504200013 76 118 0.0 4.0 0.00 0.00 0.00 44 1010.5
20260504195026 75 176 0.0 6.0 0.00 0.00 0.00 40 1010.8
20260504194039 75 124 1.0 8.0 0.00 0.00 0.00 43 1011.0
20260504193024 75 100 3.0 7.0 0.00 0.00 0.00 38 1011.1
20260504192018 75 152 0.0 4.0 0.00 0.00 0.00 40 1011.2
20260504191012 75 101 1.0 8.0 0.00 0.00 0.00 41 1011.3
20260504190020 75 110 2.0 8.0 0.00 0.00 0.00 39 1011.5
20260504185014 74 109 2.0 7.0 0.00 0.00 0.00 40 1011.5
20260504184029 74 185 0.0 7.0 0.00 0.00 0.00 41 1011.7
20260504183024 74 112 1.0 4.0 0.00 0.00 0.00 40 1011.8
20260504182038 75 99 2.0 8.0 0.00 0.00 0.00 40 1011.9
20260504181023 75 288 1.0 7.0 0.00 0.00 0.00 36 1011.9
20260504180040 76 252 1.0 9.0 0.00 0.00 0.00 38 1012.1
20260504175025 75 109 0.0 8.0 0.00 0.00 0.00 38 1012.2
20260504174019 75 259 0.0 6.0 0.00 0.00 0.00 36 1012.4
20260504173031 75 167 1.0 9.0 0.00 0.00 0.00 35 1012.5
20260504172025 74 242 4.0 11.0 0.00 0.00 0.00 36 1012.7
20260504171020 73 235 2.0 13.0 0.00 0.00 0.00 35 1012.8
20260504151021 70 305 0.0 7.0 0.00 0.00 0.00 47 1014.0
20260504141038 61 257 0.0 2.0 0.00 0.00 0.00 53 1014.3
20260504081038 51 238 0.0 0.0 0.00 0.00 0.00 66 1015.4
20260504050024 47 238 0.0 0.0 0.00 0.00 0.00 68 1015.6
20260504045035 47 238 0.0 0.0 0.00 0.00 0.00 67 1015.7
20260504044028 47 238 0.0 0.0 0.00 0.00 0.00 67 1015.9
20260504043022 47 238 0.0 0.0 0.00 0.00 0.00 68 1015.8
20260504042034 47 238 0.0 0.0 0.00 0.00 0.00 68 1015.8
20260504041019 47 238 0.0 0.0 0.00 0.00 0.00 68 1015.8
20260504040036 47 238 0.0 0.0 0.00 0.00 0.00 68 1015.7
20260504035029 47 238 0.0 0.0 0.00 0.00 0.00 67 1015.7
20260504034013 47 240 0.0 0.0 0.00 0.00 0.00 66 1015.6
20260504033028 47 240 0.0 0.0 0.00 0.00 0.00 65 1015.3
20260504032022 48 240 0.0 0.0 0.00 0.00 0.00 64 1015.3
20260504031013 48 240 0.0 0.0 0.00 0.00 0.00 64 1015.1
20260504030050 48 240 0.0 0.0 0.00 0.00 0.00 64 1015.3
20260504025013 48 240 0.0 0.0 0.00 0.00 0.00 63 1015.2
20260504024056 49 240 0.0 0.0 0.00 0.00 0.00 63 1015.1
20260504023049 49 240 0.0 0.0 0.00 0.00 0.00 63 1015.1
20260504022024 50 240 0.0 0.0 0.00 0.00 0.00 61 1015.1
20260504021037 50 240 0.0 0.0 0.00 0.00 0.00 61 1015.0
20260504020024 50 240 0.0 0.0 0.00 0.00 0.00 61 1015.0
20260504015037 51 240 0.0 0.0 0.00 0.00 0.00 59 1014.8
20260504014022 51 240 0.0 0.0 0.00 0.00 0.00 58 1014.9
20260504013101 52 240 0.0 0.0 0.00 0.00 0.00 57 1014.9
20260504012026 53 240 0.0 0.0 0.00 0.00 0.00 56 1014.8
20260504011020 53 240 0.0 0.0 0.00 0.00 0.00 55 1014.7
20260504010056 54 240 0.0 0.0 0.00 0.00 0.00 53 1014.7
20260504005020 55 240 0.0 0.0 0.00 0.00 0.00 52 1014.6
20260504004014 56 240 0.0 0.0 0.00 0.00 0.00 51 1014.4
20260504003028 57 240 0.0 0.0 0.00 0.00 0.00 50 1014.4
20260504002024 57 240 0.0 0.0 0.00 0.00 0.00 47 1014.3
20260504001018 58 240 0.0 0.0 0.00 0.00 0.00 46 1014.3
20260504000027 59 240 0.0 0.0 0.00 0.00 0.00 43 1014.2
20260503235021 61 240 0.0 4.0 0.00 0.00 0.00 39 1014.1
20260503234035 61 97 0.0 3.0 0.00 0.00 0.00 35 1014.0
20260503233020 62 278 1.0 5.0 0.00 0.00 0.00 34 1013.8
20260503232013 62 267 0.0 5.0 0.00 0.00 0.00 33 1013.9
20260503231028 63 270 2.0 8.0 0.00 0.00 0.00 33 1014.0
20260503230013 63 257 2.0 7.0 0.00 0.00 0.00 33 1013.8
20260503225027 63 267 3.0 8.0 0.00 0.00 0.00 33 1013.9
20260503224021 63 264 2.0 10.0 0.00 0.00 0.00 33 1013.9